COSMOS 1275 DEB, 12694

Orbit data source: Space-Track

COSMOS 1275 DEB, 12694 is space debris in LEO originally from a launch on Thu, 04 Jun 1981 UTC launched from the Plesetsk Missile And Space Complex (PKMTR). Debris objects in space refer to the collection of defunct objects orbiting the Earth. Examples of debris include non-operational satellites, rocket bodies, and fragments generated from explosions, collisions, or faulty payload assembly.

Loading next visibility...
Identifier
12694, 1981-053AN
Orbit
LEO
Last TLE update
11 hours ago
Origin
Manufacturer
Unknown
Mission
Spacecraft
Bus & Motor
Unknown
Mass
Unknown
Launch date (UTC)
1981-06-04 (44 years ago)
Launch vehicle
Unknown
Launch site
Plesetsk Missile And Space Complex (PKMTR)
Object type
Payload
Rocket body
Debris
Shape & HBR
Unknown
Radar Cross Section
Small (<0.1 m²)

Expand to show TLE details & history

TLE from 11 hours ago
0 COSMOS 1275 DEB
1 12694U 81053AN  25181.90022225  .00000363  00000-0  43013-3 0  9994
2 12694  83.0824 349.5407 0115951 126.1953 351.6457 13.62083530175140
Epoch: 2025-06-30T21:36Z
TLE epoch observation values (Epoch: 2025-06-30T21:36:19.202Z)
Latitude
61.66063°
Longitude
-86.67379°
Altitude
953.722 km
Speed
7.423 km/s
True Right ascension
10h 26m 26s
True Declination
61° 31' 14"
Sunlit
Object was in daylight at epoch
Visualization orbit readout
Latitude
-83.06073°
Longitude
23.27783°
Altitude
1,127.474 km
Speed
7.253 km/s
Apparent Right ascension
09h 06m 42s
Apparent Declination
-69° 38' 56"
Sunlit
Object is in daylight
Visualization observer readout
Local Sidereal Time
20:33:56
Azimuth
185.678° SSW
Elevation
-59.954°
Doppler factor
1
Orbital elements
Apogee altitude
1,111.134 km
Perigee altitude
939.447 km
Semi-major axis
7,403.428 km
Eccentricity
0.0116
Inclination
83.0824°
RAAN
349.5407°
Arg. of periapsis
126.1953°
True anomaly
Unknown
Mean anomaly
351.6457°
Eccentric anomaly
Unknown
Mean motion
3.40717 °/min
Orbital period
105.66 mins
BSTAR
0.00043013
Loading maneuver chart data...
Loading SW <> Apogee altitude chart data...
Loading historical data...
Loading historical data...
Loading historical data...
Loading historical data...
Loading historical data...
Loading historical data...
Loading historical data...

COSMOS 1275 DEB Visibility forecast

Observer location: undefined°, undefined°

Span
Click to sort rows by Start time (UTC) header in descending order
Start Az.
Max El. time (UTC)
Max El. Az.
Max El.
End time (UTC)
End Az.
11 mins2025-07-01 11:14:44.905Z155.63° SSE2025-07-01 11:19:44.905Z96.622° ESE34.286°2025-07-01 11:25:44.905Z21.36° NNE
9 mins2025-07-01 13:02:44.905Z238.534° WSW2025-07-01 13:06:44.905Z288.181° WNW25.397°2025-07-01 13:11:44.905Z343.195° N
9 mins2025-07-01 22:18:44.905Z15.958° NNE2025-07-01 22:22:44.905Z68.579° E30.583°2025-07-01 22:27:44.905Z137.992° SSE
8 mins2025-07-02 00:05:44.905Z322.308° NNW2025-07-02 00:09:44.905Z267.302° W26.223°2025-07-02 00:13:44.905Z219.714° SW
|